[[{"header":{"parameterUnit":"m.s-1","parameterCategory":1,"la1":30.2991,"la2":30.254,"lo1":-89.0895,"lo2":-89.0444,"dy":0.0017,"dx":0.0017,"nx":28,"ny":28,"refTime":"2023-09-27T03:00:00:Z","depth":0,"parameterNumber":2,"parameterNumberName":"U-component_of_WINDS"},"data":[0,0,0,0,0,0,0,0,0,0,0,0,0,0,0,0,0,0,0,0,0,0,0,0,0,0,0,0,0,0,0,0,0,0,0,0,0,0,0,0,0,0,0,0,0,0,0,0,0,0,0,0,0,0,0,0,0,0,-5.4406,-5.4408,0,-5.4535,-5.4537,-5.4538,-5.4438,-5.4434,-5.443,-5.4426,-5.4554,-5.4561,-5.4568,0,0,0,0,0,0,0,0,0,0,0,0,0,-5.4068,-5.4075,-5.4406,-5.4408,-5.4409,-5.4535,-5.4537,-5.4539,-5.4439,-5.4434,-5.4429,-5.4424,-5.4551,-5.456,-5.4569,0,0,0,0,0,0,0,0,0,0,0,0,0,-5.4208,-5.4077,-5.4406,-5.4375,-5.4373,-5.4535,-5.4537,-5.4539,-5.444,-5.4434,-5.4427,-5.4421,-5.4548,-5.4559,-5.457,-5.4768,0,0,-5.4604,-5.4609,0,0,0,0,0,0,0,0,-5.42,-5.422,-5.4378,-5.4377,-5.4376,-5.4464,-5.4465,-5.4616,-5.4442,-5.4415,-5.4426,-5.4418,-5.4529,-5.4541,-5.4579,-5.4774,-5.4779,-5.4605,-5.4612,-5.4617,-5.462,0,0,0,0,0,0,0,-5.419,-5.4214,-5.4457,-5.438,-5.4379,-5.4353,-5.4366,-5.4493,-5.4506,-5.4417,-5.441,-5.4427,-5.4527,-5.4569,-5.4582,-5.4781,-5.4605,-5.4615,-5.4622,-5.4626,-5.5143,-5.515,0,0,0,0,0,0,-5.4184,-5.4207,-5.4453,-5.4461,-5.4271,-5.4364,-5.4379,-5.4442,-5.4505,-5.4508,-5.4432,-5.4421,-5.4553,-5.4569,-5.4586,-5.4821,-5.4617,-5.4627,-5.4633,-5.5136,-5.5145,-5.5152,0,0,0,0,0,0,-5.4178,-5.4207,-5.4448,-5.4332,-5.4361,-5.4377,-5.4449,-5.4448,-5.449,-5.4516,-5.4518,-5.4473,-5.4549,-5.457,-5.4723,-5.4824,-5.4632,-5.4642,-5.5128,-5.5139,-5.5149,-5.5294,0,0,0,0,0,0,-5.4168,-5.4206,-5.4282,-5.4335,-5.4367,-5.4585,-5.4456,-5.4455,-5.451,-5.4498,-5.4555,-5.4558,-5.4545,-5.4707,-5.4735,-5.4836,-5.4651,-5.5119,-5.5133,-5.5145,-5.528,-5.5308,-5.5332,0,0,0,0,0,-5.4157,-5.4317,-5.4286,-5.4317,-5.4463,-5.4591,-5.461,-5.4593,-5.4519,-5.4595,-5.4611,-5.4556,-5.4809,-5.4724,-5.4754,-5.486,-5.5112,-5.5129,-5.5144,-5.5269,-5.5303,-5.5332,0,0,0,0,0,0,-5.4274,-5.4323,-5.429,-5.4472,-5.4529,-5.4574,-5.467,-5.463,-5.4707,-5.4692,-5.4666,-5.468,-5.4842,-5.4866,-5.477,-5.5054,-5.4948,-5.4971,-5.5033,-5.5066,-5.5091,-5.5082,-5.466,0,0,0,0,0,-5.4321,-5.4422,-5.4459,-5.4616,-5.4646,-5.4654,-5.4708,-5.4691,-5.4747,-5.477,-5.4798,-5.4854,-5.4946,-5.5007,-5.5093,-5.5283,-5.5294,-5.5371,-5.5397,-5.5418,-5.5438,-5.554,-5.5575,-5.5205,-5.5205,-5.5204,0,0,-5.4419,-5.4458,-5.4524,-5.4641,-5.4682,-5.4786,-5.4674,-5.4789,-5.4865,-5.4787,-5.4934,-5.4957,-5.5017,-5.519,-5.5267,-5.5215,-5.5542,-5.5438,-5.5455,-5.5463,-5.556,-5.5595,-5.5626,-5.5216,-5.5214,-5.5212,0,0,-5.4651,-5.4692,-5.4827,-5.4872,-5.4937,-5.494,-5.4973,-5.5025,-5.5038,-5.5185,-5.5129,-5.5218,-5.5377,-5.5423,-5.5467,-5.5717,-5.5669,-5.5745,-5.5881,-5.5981,-5.601,-5.6036,-5.6126,-5.6158,-5.5765,-5.5765,-5.5765,0,-5.4765,-5.4921,-5.4901,-5.5021,-5.5074,-5.5009,-5.5146,-5.5189,-5.5278,-5.5316,-5.5256,-5.5454,-5.549,-5.5673,-5.5734,-5.5772,-5.5808,-5.5739,-5.6008,-5.6034,-5.6057,-5.6142,-5.6176,-5.5774,-5.5773,-5.5772,-5.5771,0,-5.5057,-5.5167,-5.5268,-5.5358,-5.5422,-5.5549,-5.5548,-5.5614,-5.5591,-5.5601,-5.5752,-5.5793,-5.5886,-5.5928,-5.5905,-5.6108,-5.6073,-5.6012,-5.5905,-5.6102,-5.6181,-5.6214,-5.5787,-5.5784,-5.5781,-5.5779,0,0,-5.5368,-5.5446,-5.5483,-5.5523,-5.559,-5.5673,-5.5797,-5.589,-5.5948,-5.6011,-5.6114,-5.625,-5.6193,-5.6243,-5.6226,-5.6314,-5.6509,-5.6241,-5.6242,-5.629,-5.6735,-5.6781,-5.6819,-5.6478,-5.6484,-5.6489,-5.673,0,-5.5604,-5.5822,-5.5808,-5.6012,-5.6112,-5.6052,-5.616,-5.6212,-5.6224,-5.631,-5.6322,-5.6419,-5.6337,-5.6367,-5.6451,-5.6468,-5.6598,-5.645,-5.6572,-5.6577,-5.656,-5.6861,-5.691,-5.7136,-5.676,-5.6766,-5.677,0,-5.5908,-5.5984,-5.62,-5.6252,-5.6293,-5.6391,-5.6475,-5.6558,-5.6615,-5.6617,-5.6674,-5.6641,-5.6765,-5.6655,-5.6825,-5.6724,-5.6773,-5.6789,-5.6797,-5.6808,-5.6686,-5.688,-5.7207,-5.7242,-5.6818,-5.6814,-5.6811,0,-5.6114,-5.6269,-5.6418,-5.6454,-5.6519,-5.6589,-5.6619,-5.667,-5.6726,-5.6799,-5.6835,-5.6921,-5.6968,-5.7035,-5.7026,-5.6946,-5.7199,-5.7088,-5.7204,-5.7204,-5.726,-5.7257,-5.76,-5.7291,-5.729,-5.729,-5.7289,0,-5.6379,-5.6513,-5.6512,-5.6604,-5.6752,-5.6733,-5.688,-5.6901,-5.6947,-5.7041,-5.6993,-5.7082,-5.7064,-5.7153,-5.7146,-5.7288,-5.7309,-5.7314,-5.7311,-5.7319,-5.7318,-5.7351,-5.7335,-5.7299,-5.7297,-5.7295,-5.7293,0,-5.6634,-5.6639,-5.6797,-5.6846,-5.6861,-5.6968,-5.7008,-5.7094,-5.7102,-5.7222,-5.7249,-5.7261,-5.7363,-5.736,-5.7475,-5.747,-5.7644,-5.7623,-5.7626,-5.7622,-5.7738,-5.7727,-5.8115,-5.8164,-5.7823,-5.7826,-5.7829,0,-5.6804,-5.6906,-5.6966,-5.7026,-5.7061,-5.7158,-5.7216,-5.7201,-5.7264,-5.7337,-5.7414,-5.7511,-5.7588,-5.7753,-5.7771,-5.7858,-5.7839,-5.7968,-5.7851,-5.7856,-5.7841,-5.7836,-5.7846,-5.7991,-5.7995,-5.7998,-5.8001,0,-5.7104,-5.7102,-5.7188,-5.7276,-5.7347,-5.7415,-5.7478,-5.7529,-5.7521,-5.7593,-5.7697,-5.7757,-5.7875,-5.7972,-5.8056,-5.8084,-5.8042,-5.8038,-5.8069,-5.8079,-5.8077,-5.808,-5.7689,-5.8029,-5.8026,-5.8024,-5.8022,-5.8021,-5.7322,-5.741,-5.7466,-5.7564,-5.761,-5.7669,-5.7753,-5.7772,-5.7859,-5.7955,-5.794,-5.8057,-5.811,-5.8219,-5.8255,-5.8345,-5.8299,-5.8345,-5.8356,-5.8368,-5.8381,-5.8062,-5.836,-5.8359,-5.8358,-5.8358,-5.8357,0,-5.762,-5.7654,-5.7744,-5.7834,-5.7911,-5.7865,-5.7932,-5.7999,-5.8102,-5.8157,-5.8234,-5.8353,-5.8447,-5.8473,-5.8563,-5.863,-5.8613,-5.8654,-5.8649,-5.8657,-5.8417,-5.8381,-5.8667,-5.8667,-5.8667,-5.8666,-5.8666,-5.8666,-5.7785,-5.7932,-5.7936,-5.8104,-5.8136,-5.8251,-5.8293,-5.8347,-5.839,-5.8526,-5.8605,-5.8621,-5.8664,-5.8757,-5.8841,-5.8846,-5.8881,-5.8931,-5.8929,-5.8704,-5.8673,-5.8644,-5.861,-5.8939,-5.8939,-5.9161,-5.9163,-5.9164]},{"header":{"parameterUnit":"m.s-1","parameterCategory":1,"la1":30.2991,"la2":30.254,"lo1":-89.0895,"lo2":-89.0444,"dy":0.0017,"dx":0.0017,"nx":28,"ny":28,"refTime":"2023-09-27T03:00:00:Z","depth":0,"parameterNumber":3,"parameterNumberName":"V-component_of_WINDS"},"data":[0,0,0,0,0,0,0,0,0,0,0,0,0,0,0,0,0,0,0,0,0,0,0,0,0,0,0,0,0,0,0,0,0,0,0,0,0,0,0,0,0,0,0,0,0,0,0,0,0,0,0,0,0,0,0,0,0,0,-1.1417,-1.1418,0,-1.1538,-1.154,-1.1541,-1.1559,-1.1558,-1.1557,-1.1556,-1.1682,-1.1687,-1.1691,0,0,0,0,0,0,0,0,0,0,0,0,0,-1.1202,-1.1206,-1.1417,-1.1418,-1.142,-1.1538,-1.154,-1.1541,-1.1559,-1.1558,-1.1557,-1.1555,-1.1681,-1.1686,-1.1691,0,0,0,0,0,0,0,0,0,0,0,0,0,-1.1306,-1.1207,-1.1417,-1.1443,-1.1447,-1.1538,-1.154,-1.1542,-1.156,-1.1558,-1.1556,-1.1555,-1.1679,-1.1686,-1.1692,-1.1766,0,0,-1.1712,-1.1715,0,0,0,0,0,0,0,0,-1.13,-1.1314,-1.1438,-1.1441,-1.1445,-1.1532,-1.151,-1.1617,-1.156,-1.1517,-1.1556,-1.1554,-1.1634,-1.1644,-1.167,-1.1772,-1.1777,-1.1713,-1.1717,-1.172,-1.1721,0,0,0,0,0,0,0,-1.1293,-1.1309,-1.1465,-1.1439,-1.1444,-1.1449,-1.1462,-1.1531,-1.1583,-1.152,-1.1522,-1.1536,-1.1636,-1.1664,-1.1674,-1.1779,-1.1713,-1.1718,-1.1723,-1.1725,-1.1948,-1.195,0,0,0,0,0,0,-1.1281,-1.1303,-1.1461,-1.1469,-1.1367,-1.1454,-1.1469,-1.1506,-1.1582,-1.1592,-1.1537,-1.1536,-1.1654,-1.1666,-1.1678,-1.1771,-1.172,-1.1726,-1.173,-1.1946,-1.1948,-1.195,0,0,0,0,0,0,-1.1276,-1.1295,-1.1456,-1.1386,-1.1407,-1.146,-1.1501,-1.1509,-1.1538,-1.1595,-1.1605,-1.1557,-1.1653,-1.1669,-1.1744,-1.1775,-1.1729,-1.1735,-1.1944,-1.1947,-1.1949,-1.1956,0,0,0,0,0,0,-1.127,-1.1293,-1.1322,-1.1387,-1.1411,-1.152,-1.1503,-1.1513,-1.1549,-1.1549,-1.1616,-1.1625,-1.1653,-1.1734,-1.175,-1.1783,-1.174,-1.1941,-1.1945,-1.1948,-1.1953,-1.1958,-1.1963,0,0,0,0,0,-1.1262,-1.1319,-1.1323,-1.1342,-1.1447,-1.1521,-1.1535,-1.1565,-1.1551,-1.158,-1.1617,-1.1623,-1.1768,-1.1742,-1.176,-1.1796,-1.1939,-1.1944,-1.1948,-1.1951,-1.1957,-1.1963,0,0,0,0,0,0,-1.1257,-1.1328,-1.1333,-1.1412,-1.1461,-1.1524,-1.1562,-1.1571,-1.1625,-1.1623,-1.1657,-1.1672,-1.1746,-1.1778,-1.1747,-1.1871,-1.1853,-1.1861,-1.1848,-1.1855,-1.186,-1.1852,-1.1745,0,0,0,0,0,-1.1264,-1.1318,-1.1377,-1.1442,-1.1465,-1.1509,-1.1543,-1.1561,-1.1613,-1.1634,-1.1676,-1.1727,-1.1784,-1.1821,-1.1877,-1.1957,-1.1972,-1.199,-1.1995,-1.1999,-1.2007,-1.2052,-1.2061,-1.1965,-1.1965,-1.1965,0,0,-1.1282,-1.1327,-1.1359,-1.1442,-1.1481,-1.1537,-1.1527,-1.1586,-1.1628,-1.1643,-1.1717,-1.1749,-1.1808,-1.1886,-1.1923,-1.1915,-1.2036,-1.2005,-1.2007,-1.2013,-1.2058,-1.2067,-1.2075,-1.1968,-1.1967,-1.1967,0,0,-1.1342,-1.1381,-1.1439,-1.1478,-1.1538,-1.1567,-1.158,-1.1643,-1.1665,-1.1739,-1.1752,-1.1802,-1.19,-1.1941,-1.1975,-1.2049,-1.2057,-1.2066,-1.2094,-1.2138,-1.2145,-1.2152,-1.218,-1.219,-1.2073,-1.2073,-1.2073,0,-1.1356,-1.144,-1.1468,-1.1527,-1.1563,-1.1578,-1.1637,-1.1674,-1.175,-1.1775,-1.1764,-1.1887,-1.1927,-1.2016,-1.2034,-1.206,-1.2078,-1.206,-1.2142,-1.2149,-1.2156,-1.2183,-1.2193,-1.2074,-1.2074,-1.2074,-1.2074,0,-1.1455,-1.1512,-1.1552,-1.1623,-1.1664,-1.1723,-1.176,-1.1798,-1.1812,-1.1842,-1.1918,-1.1966,-1.2032,-1.2054,-1.2069,-1.2145,-1.2139,-1.2135,-1.2117,-1.2166,-1.2192,-1.2202,-1.2075,-1.2075,-1.2074,-1.2074,0,0,-1.1517,-1.1602,-1.1616,-1.1649,-1.1715,-1.1761,-1.182,-1.1884,-1.1916,-1.1966,-1.2018,-1.2099,-1.2096,-1.2134,-1.2153,-1.2192,-1.2249,-1.2183,-1.2185,-1.2195,-1.2337,-1.2341,-1.2353,-1.2254,-1.2256,-1.2257,-1.2333,0,-1.1586,-1.1692,-1.1719,-1.1809,-1.1863,-1.1878,-1.1929,-1.1976,-1.2005,-1.2055,-1.2088,-1.2145,-1.2136,-1.2159,-1.2197,-1.2234,-1.2278,-1.2229,-1.2304,-1.2306,-1.2291,-1.2366,-1.2371,-1.244,-1.2343,-1.2345,-1.2346,0,-1.1681,-1.1733,-1.1829,-1.1888,-1.1912,-1.1958,-1.2019,-1.2066,-1.2119,-1.2138,-1.218,-1.2195,-1.2258,-1.2235,-1.2323,-1.2289,-1.2321,-1.2343,-1.2346,-1.2356,-1.2331,-1.238,-1.2463,-1.2474,-1.2362,-1.2361,-1.236,0,-1.1719,-1.1813,-1.1883,-1.191,-1.198,-1.2012,-1.2043,-1.2094,-1.2131,-1.2184,-1.2208,-1.2267,-1.23,-1.2346,-1.2378,-1.2358,-1.2464,-1.2443,-1.2482,-1.2481,-1.2506,-1.2504,-1.2596,-1.2522,-1.2522,-1.2522,-1.2522,0,-1.1795,-1.1854,-1.1901,-1.1944,-1.201,-1.2039,-1.2104,-1.2135,-1.218,-1.223,-1.2246,-1.2292,-1.233,-1.2382,-1.2406,-1.2476,-1.2491,-1.2508,-1.2515,-1.2508,-1.2506,-1.2531,-1.2528,-1.2525,-1.2524,-1.2524,-1.2523,0,-1.185,-1.1883,-1.196,-1.202,-1.2036,-1.2082,-1.2134,-1.2176,-1.2205,-1.2268,-1.2284,-1.233,-1.2392,-1.2427,-1.2505,-1.2521,-1.2599,-1.2602,-1.2582,-1.2585,-1.2622,-1.2619,-1.2736,-1.2753,-1.2666,-1.2666,-1.2667,0,-1.1897,-1.1942,-1.2006,-1.204,-1.2071,-1.2126,-1.2163,-1.2193,-1.2232,-1.2295,-1.233,-1.2392,-1.2444,-1.2542,-1.2583,-1.2643,-1.2649,-1.2685,-1.2658,-1.265,-1.2652,-1.2649,-1.2655,-1.2691,-1.2692,-1.2692,-1.2693,0,-1.1978,-1.1992,-1.2044,-1.2103,-1.2146,-1.2194,-1.2241,-1.2268,-1.2307,-1.2349,-1.2412,-1.2451,-1.253,-1.2593,-1.2656,-1.2688,-1.2698,-1.2701,-1.2713,-1.2708,-1.2695,-1.2705,-1.2597,-1.2699,-1.2698,-1.2698,-1.2697,-1.2697,-1.2032,-1.2073,-1.2124,-1.2182,-1.222,-1.2264,-1.2307,-1.234,-1.2393,-1.246,-1.2474,-1.2541,-1.2592,-1.2678,-1.2711,-1.2765,-1.2758,-1.2776,-1.2781,-1.2785,-1.2788,-1.2685,-1.2776,-1.2776,-1.2776,-1.2776,-1.2775,0,-1.2115,-1.2148,-1.2201,-1.2266,-1.2312,-1.2314,-1.2367,-1.2405,-1.2463,-1.251,-1.256,-1.2633,-1.2693,-1.2737,-1.2799,-1.2833,-1.2839,-1.2849,-1.2848,-1.2855,-1.2789,-1.2773,-1.2843,-1.2843,-1.2843,-1.2843,-1.2843,-1.2843,-1.2164,-1.2234,-1.2254,-1.2343,-1.2376,-1.2441,-1.247,-1.2511,-1.2548,-1.2628,-1.2678,-1.2706,-1.2752,-1.2817,-1.2873,-1.2885,-1.2908,-1.2917,-1.2929,-1.2867,-1.286,-1.2853,-1.2838,-1.2921,-1.2921,-1.2992,-1.2993,-1.2993]}]]